Location: Haieshausen
(51.8387°N, 9.9720°E)
Time: 04:34:17
(UTC+00:00)

Cosmos 1933 Rocket - Pass Details

Date: 14 July 2020
Orbit: 607 x 629 km, 82.5° (Epoch: 10 August)

Event Time Altitude Azimuth Distance (km) Brightness Sun altitude
Exits shadow 00:23:25 27° 178° (S) 1,186 4.4 -15.5°
Maximum altitude 00:25:45 74° 98° (E) 638 3.6 -15.4°
Drops below altitude 10° 00:30:06 10° 14° (NNE) 1,976 7.6 -15.2°
Sets 00:32:21 0° 12° (NNE) 2,888 8.9 -15.1°
